This is the latest recevied weather packets stored in our database for station/object WA4IKQ. If no packets are shown the sender has not sent any weather packets the latest 10 day(s).
| Time | Temp. | Humidity | Pressure | Rain* | Wind** | Luminosity | Snow |
|---|---|---|---|---|---|---|---|
| 1777652595 | 30° C | 53% | 1012.3 hPa | 0 mm | 3.13 m/s, 212° | - | - |
| 1777652045 | 30° C | 53% | 1012.4 hPa | 0 mm | 4.92 m/s, 238° | - | - |
| 1777651995 | 30° C | 53% | 1012.4 hPa | 0 mm | 4.92 m/s, 238° | - | - |
| 1777651865 | 30° C | 53% | 1012.3 hPa | 0 mm | 0.45 m/s, 181° | - | - |
| 1777651701 | 30° C | 53% | 1012.3 hPa | 0 mm | 0.45 m/s, 181° | - | - |
| 1777651396 | 30° C | 54% | 1012.3 hPa | 0 mm | 2.24 m/s, 250° | - | - |
| 1777650656 | 29.44° C | 56% | 1012.2 hPa | 0 mm | 2.68 m/s, 240° | - | - |
| 1777650322 | 29.44° C | 55% | 1012.3 hPa | 0 mm | 0.45 m/s, 194° | - | - |
| 1777650194 | 29.44° C | 55% | 1012.3 hPa | 0 mm | 0.45 m/s, 194° | - | - |
| 1777649775 | 29.44° C | 57% | 1012.4 hPa | 0 mm | 2.68 m/s, 236° | - | - |
| 1777649595 | 29.44° C | 57% | 1012.4 hPa | 0 mm | 2.68 m/s, 236° | - | - |
| 1777649133 | 28.89° C | 57% | 1012.4 hPa | 0 mm | 1.79 m/s, 259° | - | - |
| 1777648992 | 28.89° C | 57% | 1012.4 hPa | 0 mm | 1.79 m/s, 259° | - | - |
| 1777648393 | 28.89° C | 58% | 1012.4 hPa | 0 mm | 2.24 m/s, 176° | - | - |
| 1777648006 | 28.89° C | 59% | 1012.6 hPa | 0 mm | 2.24 m/s, 252° | - | - |
| 1777647794 | 28.89° C | 59% | 1012.6 hPa | 0 mm | 2.24 m/s, 252° | - | - |
| 1777647619 | 28.89° C | 60% | 1012.6 hPa | 0 mm | 2.24 m/s, 205° | - | - |
| 1777647401 | 28.89° C | 60% | 1012.6 hPa | 0 mm | 2.24 m/s, 219° | - | - |
| 1777647195 | 28.89° C | 60% | 1012.6 hPa | 0 mm | 2.24 m/s, 219° | - | - |
| 1777646794 | 28.89° C | 62% | 1012.5 hPa | 0 mm | 1.34 m/s, 257° | - | - |
| 1777646592 | 28.89° C | 62% | 1012.5 hPa | 0 mm | 1.34 m/s, 257° | - | - |
| 1777646178 | 28.33° C | 63% | 1012.4 hPa | 0 mm | 2.24 m/s, 226° | - | - |
| 1777645995 | 28.33° C | 63% | 1012.4 hPa | 0 mm | 2.24 m/s, 226° | - | - |
| 1777645640 | 27.78° C | 65% | 1012.3 hPa | 0 mm | 1.34 m/s, 283° | - | - |
| 1777645393 | 27.78° C | 65% | 1012.3 hPa | 0 mm | 1.34 m/s, 283° | - | - |
* Rain latest hour (hover to see other rain measurements)
** Current wind speed in m/s (hover to see current wind gust speed)